Weather History for KCPK - April, 2013

Change the Weather History Date:

Wednesday, April 24, 2013

  Actual Average (KORF) Record (KORF)
Temperature  
Mean Temperature 57 °F 61 °F  
Max Temperature 75 °F 70 °F 95 °F (1960)
Min Temperature 39 °F 51 °F 40 °F (1951)
Degree Days  
Heating Degree Days 8 6  
Month to date heating degree days 207  
Since 1 July heating degree days 3268  
Cooling Degree Days 0 2  
Month to date cooling degree days 28  
Year to date cooling degree days 35  
Growing Degree Days 7 (Base 50)    
Moisture  
Dew Point 51 °F    
Average Humidity 77    
Maximum Humidity 100    
Minimum Humidity 47    
Precipitation  
Precipitation 0.00 in 0.11 in 1.62 in (1983)
Month to date precipitation 2.74  
Year to date precipitation 12.94  
Snow  
Snow 0.00 in 0.00 in 0.00 in (2002)
Month to date snowfall 0.0  
Since 1 July snowfall 5.8  
Snow Depth -    
Sea Level Pressure  
Sea Level Pressure 30.09 in    
Wind  
Wind Speed 5 mph (South)    
Max Wind Speed 16 mph    
Max Gust Speed 23 mph    
Visibility 8 miles    
Events Fog    
T = Trace of Precipitation, MM = Missing Value Source: NWS Daily Summary

Daily Weather History Graph

Daily Weather History Graph

Search for Another Location

Airport or City:

Trip Planner

Search our weather history database for the weather conditions in past years. The results will help you decide how hot, cold, wet, or windy it might be!

Date:

Astronomy

Apr. 24, 2013 Rise Set
Actual Time 6:19 AM EDT 7:47 PM EDT
Civil Twilight 5:52 AM EDT 8:15 PM EDT
Nautical Twilight 5:19 AM EDT 8:47 PM EDT
Astronomical Twilight 4:45 AM EDT 9:22 PM EDT
Moon 6:49 PM EDT (4/24) 5:19 AM EDT (4/24)
Length of Visible Light 14h 22m
Length of Day
13h 28m
Waxing Gibbous, 98% of the Moon is Illuminated
Apr 24
Waxing Gibbous
Apr 25
Full
May 2
Last Quarter
May 9
New
May 18
First Quarter

Hourly Weather History & Observations

Time (EDT) Temp. Windchill Dew Point Humidity Pressure Visibility Wind Dir Wind Speed Gust Speed Precip Events Conditions
12:15 AM 44.6 °F - 42.8 °F 93% 30.17 in 7.0 mi Calm Calm - N/A   Clear
12:55 AM 42.8 °F - 42.8 °F 100% 30.17 in 5.0 mi Calm Calm - N/A   Clear
1:15 AM 42.8 °F - 42.8 °F 100% 30.16 in 7.0 mi Calm Calm - N/A   Clear
1:35 AM 42.8 °F - 41.0 °F 93% 30.15 in 10.0 mi Calm Calm - N/A   Clear
1:55 AM 41.0 °F - 41.0 °F 100% 30.15 in 7.0 mi Calm Calm - N/A   Clear
2:15 AM 41.0 °F - 39.2 °F 93% 30.14 in 7.0 mi Calm Calm - N/A   Clear
2:35 AM 41.0 °F - 39.2 °F 93% 30.15 in 3.0 mi Calm Calm - N/A   Clear
2:55 AM 42.8 °F - 41.0 °F 93% 30.14 in 7.0 mi Calm Calm - N/A   Clear
3:15 AM 41.0 °F - 41.0 °F 100% 30.15 in 7.0 mi Calm Calm - N/A   Clear
3:35 AM 41.0 °F - 39.2 °F 93% 30.15 in 4.0 mi Calm Calm - N/A   Scattered Clouds
3:55 AM 41.0 °F - 39.2 °F 93% 30.16 in 5.0 mi Calm Calm - N/A   Mostly Cloudy
4:15 AM 42.8 °F - 42.8 °F 100% 30.15 in 3.0 mi Calm Calm - N/A   Overcast
4:35 AM 42.8 °F - 42.8 °F 100% 30.15 in 7.0 mi Calm Calm - N/A   Overcast
4:55 AM 39.2 °F - 39.2 °F 100% 30.15 in 5.0 mi Calm Calm - N/A   Mostly Cloudy
5:15 AM 41.0 °F - 39.2 °F 93% 30.15 in 7.0 mi Calm Calm - N/A   Mostly Cloudy
5:35 AM 41.0 °F - 41.0 °F 100% 30.15 in 2.5 mi Calm Calm - N/A   Overcast
6:15 AM 42.8 °F - 42.8 °F 100% 30.16 in 3.0 mi Calm Calm - N/A   Overcast
6:35 AM 44.6 °F - 44.6 °F 100% 30.17 in 2.5 mi Calm Calm - N/A   Overcast
6:55 AM 46.4 °F - 44.6 °F 93% 30.17 in 0.5 mi Calm Calm - N/A Fog Fog
7:15 AM 46.4 °F 43.5 °F 46.4 °F 100% 30.17 in 0.2 mi South 5.8 mph - N/A Fog Fog
7:35 AM 48.2 °F - 46.4 °F 93% 30.17 in 0.2 mi SSE 4.6 mph - N/A Fog Fog
7:55 AM 48.2 °F - 46.4 °F 93% 30.18 in 0.2 mi South 5.8 mph - N/A Fog Fog
8:15 AM 48.2 °F - 48.2 °F 100% 30.18 in 0.2 mi South 5.8 mph - N/A Fog Fog
8:35 AM 50.0 °F - 48.2 °F 94% 30.18 in 0.8 mi South 4.6 mph - N/A   Overcast
8:55 AM 51.8 °F - 51.8 °F 100% 30.17 in 4.0 mi South 8.1 mph - N/A   Overcast
9:15 AM 53.6 °F - 53.6 °F 100% 30.17 in 5.0 mi South 9.2 mph - N/A   Overcast
9:35 AM 55.4 °F - 53.6 °F 94% 30.16 in 7.0 mi SSW 9.2 mph - N/A   Overcast
9:55 AM 57.2 °F - 53.6 °F 88% 30.16 in 7.0 mi SSW 10.4 mph - N/A   Overcast
10:15 AM 59.0 °F - 55.4 °F 88% 30.16 in 10.0 mi SSW 9.2 mph - N/A   Mostly Cloudy
10:35 AM 62.6 °F - 55.4 °F 77% 30.14 in 10.0 mi SSW 10.4 mph - N/A   Scattered Clouds
10:55 AM 64.4 °F - 55.4 °F 73% 30.14 in 10.0 mi SSW 10.4 mph - N/A   Scattered Clouds
11:15 AM 64.4 °F - 55.4 °F 73% 30.13 in 10.0 mi South 11.5 mph - N/A   Scattered Clouds
11:35 AM 66.2 °F - 57.2 °F 73% 30.12 in 10.0 mi South 10.4 mph - N/A   Scattered Clouds
11:55 AM 68.0 °F - 55.4 °F 64% 30.11 in 10.0 mi SW 8.1 mph - N/A   Scattered Clouds
12:15 PM 69.8 °F - 55.4 °F 60% 30.10 in 10.0 mi SSW 15.0 mph - N/A   Clear
12:35 PM 69.8 °F - 55.4 °F 60% 30.09 in 10.0 mi South 12.7 mph - N/A   Clear
12:55 PM 69.8 °F - 55.4 °F 60% 30.07 in 10.0 mi South 9.2 mph - N/A   Clear
1:15 PM 69.8 °F - 55.4 °F 60% 30.06 in 10.0 mi South 11.5 mph 18.4 mph N/A   Clear
1:35 PM 71.6 °F - 57.2 °F 60% 30.06 in 10.0 mi South 16.1 mph 19.6 mph N/A   Clear
1:55 PM 71.6 °F - 55.4 °F 57% 30.05 in 10.0 mi South 13.8 mph 20.7 mph N/A   Scattered Clouds
2:15 PM 73.4 °F - 57.2 °F 57% 30.04 in 10.0 mi South 11.5 mph 18.4 mph N/A   Scattered Clouds
2:35 PM 73.4 °F - 57.2 °F 57% 30.04 in 10.0 mi South 12.7 mph 18.4 mph N/A   Clear
2:55 PM 73.4 °F - 57.2 °F 57% 30.04 in 10.0 mi South 12.7 mph 21.9 mph N/A   Clear
3:15 PM 73.4 °F - 57.2 °F 57% 30.03 in 10.0 mi South 15.0 mph - N/A   Scattered Clouds
3:35 PM 73.4 °F - 55.4 °F 53% 30.02 in 10.0 mi South 13.8 mph 23.0 mph N/A   Clear
3:55 PM 73.4 °F - 55.4 °F 53% 30.01 in 10.0 mi South 10.4 mph 19.6 mph N/A   Clear
4:15 PM 75.2 °F - 57.2 °F 53% 30.01 in 10.0 mi SSW 11.5 mph 16.1 mph N/A   Clear
4:35 PM 75.2 °F - 55.4 °F 50% 30.01 in 10.0 mi SSW 15.0 mph 18.4 mph N/A   Clear
4:55 PM 75.2 °F - 55.4 °F 50% 30.00 in 10.0 mi SSW 15.0 mph 20.7 mph N/A   Clear
5:15 PM 75.2 °F - 53.6 °F 47% 29.99 in 10.0 mi SSW 16.1 mph 19.6 mph N/A   Scattered Clouds
5:35 PM 75.2 °F - 55.4 °F 50% 29.99 in 10.0 mi SSW 11.5 mph - N/A   Clear
5:55 PM 73.4 °F - 53.6 °F 50% 29.99 in 10.0 mi SSW 13.8 mph 20.7 mph N/A   Clear
6:15 PM 73.4 °F - 53.6 °F 50% 29.98 in 10.0 mi SSW 10.4 mph - N/A   Clear
6:35 PM 71.6 °F - 53.6 °F 53% 29.98 in 10.0 mi South 11.5 mph - N/A   Clear
6:55 PM 71.6 °F - 55.4 °F 57% 29.96 in 10.0 mi South 9.2 mph - N/A   Clear
7:15 PM 69.8 °F - 57.2 °F 64% 29.97 in 10.0 mi South 8.1 mph - N/A   Clear
7:35 PM 69.8 °F - 57.2 °F 64% 29.97 in 10.0 mi South 8.1 mph - N/A   Clear
7:55 PM 69.8 °F - 57.2 °F 64% 29.97 in 10.0 mi South 9.2 mph - N/A   Clear
8:15 PM 69.8 °F - 57.2 °F 64% 29.97 in 10.0 mi South 9.2 mph - N/A   Clear
8:35 PM 68.0 °F - 57.2 °F 68% 29.99 in 10.0 mi South 9.2 mph - N/A   Clear
8:55 PM 68.0 °F - 57.2 °F 68% 29.99 in 10.0 mi South 9.2 mph - N/A   Clear
9:15 PM 66.2 °F - 57.2 °F 73% 30.00 in 10.0 mi South 11.5 mph - N/A   Clear
9:35 PM 66.2 °F - 57.2 °F 73% 30.01 in 10.0 mi South 10.4 mph - N/A   Clear
9:55 PM 66.2 °F - 57.2 °F 73% 30.02 in 10.0 mi South 11.5 mph - N/A   Clear
11:15 PM 64.4 °F - 59.0 °F 83% 30.03 in 10.0 mi South 12.7 mph - N/A   Clear
11:35 PM 64.4 °F - 59.0 °F 83% 30.03 in 10.0 mi South 9.2 mph - N/A   Clear
11:55 PM 64.4 °F - 59.0 °F 83% 30.03 in 10.0 mi South 5.8 mph 16.1 mph N/A   Clear